Flag for U.S.A. Weather past 2 weeks in Stillwater, Minnesota, U.S.A.

Now
67 °F

Sunny.


Feels Like: 67 °F
Forecast: 58 / 73 °F
Wind: 5 mph from Northeast

Location: St. Paul Downtown Holman Field

Current Time: Jun 30, 2015 at 10:12:53 AM

Latest Report: Jun 30, 2015 at 8:53 AM


Visibility: 8 mi

Pressure: 29.92 "Hg

Humidity: 81%

Dew point: 61 °F

Location of StillwaterLocation

Historic Weather in Stillwater — Graph

°F

Stillwater temperature yesterday

Maximum temperature yesterday: 82 °F (at 1:53 PM)
Minimum temperature yesterday: 61 °F (at 4:53 AM)
Average temperature yesterday: 70 °F

Past Weeks' High & Low Weather Summary

 TemperatureHumidityPressure
High84 °F (Jun 21, 3:53 PM)100% (Jun 22, 8:59 AM)30.22 "Hg (Jun 22, 8:59 AM)
Low54 °F (Jun 16, 5:53 AM)36% (Jun 21, 4:53 PM)29.47 "Hg (Jun 22, 9:53 AM)
Average70 °F70%29.94 "Hg
* Reported Jun 15 7:04 AM — Jun 30 7:53 AM, Stillwater, Weather by CustomWeather, © 2015

Note: Actual official high and low records may vary slightly from our data, if they occured in-between our weather recording intervals... More about our weather records

Advertising

Stillwater weather history for previous 24 hours

 ConditionsComfort  
Time TempWeatherWind HumidityBarometerVisibility
7:53 AM
Tue, Jun 30
65 °FHaze.6 mph85%29.91 "Hg6 mi
6:53 AM64 °FFog.7 mph90%29.89 "Hg5 mi
5:53 AM62 °FFog.3 mph93%29.86 "Hg5 mi
4:53 AM63 °FFog.5 mph90%29.85 "Hg6 mi
3:53 AM63 °FFog.5 mph97%29.83 "Hg6 mi
2:53 AM64 °FFog.No wind94%29.83 "Hg5 mi
1:53 AM62 °FFog.No wind100%29.83 "Hg5 mi
12:53 AM63 °FFog.No wind97%29.83 "Hg5 mi
11:53 PM
Mon, Jun 29
63 °FFog.No wind97%29.82 "Hg6 mi
10:53 PM63 °FFog.No wind97%29.81 "Hg6 mi
9:53 PM63 °FSunny.3 mph93%29.81 "Hg7 mi
8:53 PM64 °FBroken clouds.3 mph94%29.79 "Hg7 mi
7:53 PM64 °FPartly sunny.9 mph90%29.80 "Hg8 mi
6:53 PM71 °FThundershowers. Partly sunny.18 mph59%29.83 "Hg8 mi
5:53 PM79 °FSunny.9 mph58%29.75 "Hg9 mi
4:53 PM80 °FPassing clouds.14 mph58%29.75 "Hg10 mi
3:53 PM80 °FPassing clouds.13 mph54%29.77 "Hg10 mi
2:53 PM79 °FScattered clouds.16 mph54%29.77 "Hg10 mi
1:53 PM82 °FPassing clouds.12 mph51%29.78 "Hg10 mi
12:53 PM81 °FSunny.14 mph54%29.80 "Hg10 mi
11:53 AM80 °FSunny.12 mph56%29.80 "Hg10 mi
10:53 AM78 °FSunny.9 mph62%29.80 "Hg10 mi
Weather by CustomWeather, © 2015

See weather overviewHow to use our weather pages